星链-1316 (STARLINK-1316 )

导读

STARLINK-1316是美国太空探索技术公司(SpaceX)星链星座的卫星,于2020年3月18日发射,属于星链早期部署批次。星链项目旨在构建全球卫星互联网,该卫星承担低轨通信任务,服务全球偏远地区网络覆盖,为后续大规模星座组网积累了技术经验。

基本信息
目录编号:
45415
目录名称:
STARLINK-1316
国际标识:
2020-019BH
轨道中心:
EARTH
卫星名称:
星链-1316
卫星全名:
星链-1316 (STARLINK-1316 )
卫星状态:
在轨 (已飞行2283 天)
发射日期:
2020-03-18 UTC
国别 :
美国 (US)
星等 :
--
轨道信息
数据来源 国际轨道数据
星历时间: 2026-06-18T08:26:06+0800
21小时前
查看轨道信息
半长轴: 6825.013km
偏心率: 0.0004575
轨道倾角: 53.155°
近地点辐角 115.963°
升交点赤经 19.940°
平近点角 244.185°
近地点: 443.753km
远地点: 449.999km
周期: 93.522分钟
每日圈数: 15.397406
详细信息
固有亮度:
5
最大亮度:
2.5
卫星平台:
Starlink V1.0
覆盖范围:
全球
运营商:
太空探索技术公司
运营商所在国:
美国
制造商(研发单位):
太空探索技术公司
制造商所在国:
美国
使用方式:
暂无
卫星简介
星链(Starlink)计划是由太空探索技术公司(SpaceX)提出的一个巨型低轨卫星互联网星座项目,计划在2019年至2024年间在太空搭建由约1.2万颗卫星组成的“星链”网络,其中1584颗将部署在地球上空550千米处的近地轨道,并从2020年开始工作。该卫星仍在工作。
2D轨道图
3D轨道图
轨道高度分析图
轨道倾角分析图
轨道综合分析图
查看轨道综合分析图